Regional Weather Roundup
Issued by NWS

Home | Current Version | Previous Version | Graphics & Text | Print | Product List | Glossary On
Versions: 1 2 3 4 5 6 7 8 9 10 11 12 13 14 15 16 17 18 19 20 21 22 23 24 25 26 27 28 29 30 31 32 33 34 35 36 37 38 39 40 41 42 43 44 45 46 47 48 49 50
034
ASUS43 KBIS 231210
RWRND

NORTH DAKOTA REGIONAL WEATHER ROUNDUP
NATIONAL WEATHER SERVICE BISMARCK ND
700 AM CDT WED AUG 23 2017

NOTE: "FAIR" INDICATES FEW OR NO CLOUDS BELOW 12,000 FEET WITH NO
SIGNIFICANT WEATHER AND/OR OBSTRUCTIONS TO VISIBILITY.


NDZ001>003-009>011-017-231300-
NORTHWEST NORTH DAKOTA

CITY           SKY/WX    TMP DP  RH WIND       PRES   REMARKS
WILLISTON      CLEAR     54  43  66 CALM      30.03F
6HR MIN TEMP:  51; 6HR MAX TEMP:  64;

MINOT          CLOUDY    58  47  66 S7        30.02S
MINOT AFB      PTCLDY    52  46  82 SE3       30.01S
$$

NDZ018>021-031>035-040>046-231300-
SOUTHWEST NORTH DAKOTA

CITY           SKY/WX    TMP DP  RH WIND       PRES   REMARKS
BISMARCK       CLEAR     49  46  90 NE6       30.08S
6HR MIN TEMP:  47; 6HR MAX TEMP:  56;

DICKINSON      CLEAR     52  43  71 S9        30.06S
GARRISON         N/A     52  46  80 S3        30.05S
6HR MIN TEMP:  50; 6HR MAX TEMP:  58;

HETTINGER ARPT CLEAR     54  45  71 E9        30.09S
$$

NDZ004>008-012>016-024-026-027-054-231300-
NORTHEAST NORTH DAKOTA

CITY           SKY/WX    TMP DP  RH WIND       PRES   REMARKS
GRAND FORKS    MOCLDY    50  47  89 E3        30.10R
GRND FRKS AFB  CLOUDY    46  45  96 CALM      30.10R
DEVILS LAKE    PTCLDY    55  50  83 SE5       30.09R
$$

NDZ022-023-025-028>030-036>039-047>053-231300-
SOUTHEAST NORTH DAKOTA

CITY           SKY/WX    TMP DP  RH WIND       PRES   REMARKS
FARGO          CLEAR     46  45  96 CALM      30.11R
6HR MIN TEMP:  45; 6HR MAX TEMP:  53;

JAMESTOWN      CLEAR     48  45  89 CALM      30.09S
$$





USA.gov is the U.S. government's official web portal to all federal, state and local government web resources and services.